Regional Weather Roundup
Issued by NWS

Home | Current Version | Previous Version | Graphics & Text | Print | Product List | Glossary On
Versions: 1 2 3 4 5 6 7 8 9 10 11 12 13 14 15 16 17 18 19 20 21 22 23 24 25 26 27 28 29 30 31 32 33 34 35 36 37 38 39 40 41 42 43 44 45 46 47 48 49 50
000
ASUS43 KLOT 282208
RWRIL

ILLINOIS REGIONAL WEATHER ROUNDUP
NATIONAL WEATHER SERVICE CHICAGO/ROMEOVILLE IL
500 PM CDT SAT MAR 28 2015

NOTE: "FAIR" INDICATES FEW OR NO CLOUDS BELOW 12,000 FEET WITH NO
SIGNIFICANT WEATHER AND/OR OBSTRUCTIONS TO VISIBILITY.

* THESE STATIONS ARE NOT UNDER NWS QUALITY CONTROL. THEY ALSO MAY NOT
  REPORT WEATHER SUCH AS PRECIPITATION OR FOG.

ILZ001-002-007-009-015-016-024-282300-
NORTHWEST ILLINOIS

CITY           SKY/WX    TMP DP  RH WIND       PRES   REMARKS
MOLINE         SUNNY     42   9  25 SE8       30.26F
STERLING*      SUNNY     41  14  33 SE7       30.27F
SAVANNA*       SUNNY     41  10  27 S6        30.26F
$$

ILZ003-004-008-010-011-017-018-282300-
NORTH CENTRAL ILLINOIS

CITY           SKY/WX    TMP DP  RH WIND       PRES   REMARKS
ROCKFORD       SUNNY     40  12  32 SW6       30.28F
FREEPORT*      SUNNY     38  13  35 SE7       30.28F WCI  33
ROCHELLE*      SUNNY     38  14  36 SW3       30.28S
DE KALB*       SUNNY     37  10  33 CALM      30.27S
PERU*          SUNNY     41  10  27 SW5       30.28F
$$

ILZ005-006-012>014-019>023-282300-
NORTHEAST ILLINOIS

CITY           SKY/WX    TMP DP  RH WIND       PRES   REMARKS
CHICAGO-OHARE  SUNNY     35   7  31 E7        30.29F WCI  29
CHICAGO-MIDWAY SUNNY     36   4  26 VRB6      30.31F WCI  31
AURORA         SUNNY     40   6  24 VRB3      30.27F
LANSING*       SUNNY     34   6  31 N7        30.31F WCI  28
JOLIET*        SUNNY     40   8  25 S3        30.29F
WAUKEGAN       SUNNY     30  12  47 SE10      30.29F WCI  21
DUPAGE AIRPORT SUNNY     39   5  24 VRB5      30.27F
KANKAKEE*      SUNNY     39   8  28 E3        30.30S
WHEELING       SUNNY     33   7  33 VRB5      30.31F WCI  29
MORRIS*        SUNNY     40   8  26 CALM      30.27F
ROMEOVILLE*    SUNNY     38   3  23 E3        30.29S
NORTHERLY ISL    N/A     29  11  47 E6          N/A  WCI  23
$$

LMZ740>746-282300-
SOUTHERN LAKE MICHIGAN

STATION/POSITION SKY/WX   TEMP    WIND        PRES    VSBY  WAVE
                          AIR SEA DIR/SP/G                  HT/PER
                          (F)     (DEG/KT/KT) (MB)    (MI)  (FT/S)
HARRISON CRIB              26      50/  4/  5   N/A
BURNHAM HARBOR             29      50/  6/  8   N/A
CALUMET HARBOR             28      30/  7/  9 1025.6F
BURNS HARBOR               26     350/  6/  8 1027.4S
MICHIGAN CITY              28     330/  9/ 11   N/A
$$

ILZ025>027-034>036-040-047-049-050-058-095>099-282300-
WEST-CENTRAL ILLINOIS

CITY           SKY/WX    TMP DP  RH WIND       PRES   REMARKS
QUINCY         SUNNY     43  15  32 SE9       30.24F
GALESBURG*     SUNNY     41  13  32 S8        30.26S
MACOMB*        SUNNY     42  12  29 S7        30.28F
JACKSONVILLE*  SUNNY     42  20  40 SE10      30.28S
PITTSFIELD*    SUNNY     43  19  38 SE7       30.27S
$$

ILZ028>032-037-038-041>044-048-051>054-059>061-282300-
CENTRAL ILLINOIS

CITY           SKY/WX    TMP DP  RH WIND       PRES   REMARKS
PONTIAC        SUNNY     40  12  31 SE3       30.29F
BLOOMINGTON    SUNNY     41  13  32 S5        30.28F
DECATUR        SUNNY     40  15  36 E5        30.29F
PEORIA         SUNNY     43  12  28 SE6       30.28F
LACON*         SUNNY     41  10  28 S8        30.27F
LINCOLN*       SUNNY     42  17  35 SW3       30.29F
SPRINGFIELD    SUNNY     41  14  33 SE5       30.29F
TAYLORVILLE    SUNNY     37  16  41 SE5       30.29S WCI  34
$$

ILZ033-039-045-046-055>057-062-063-282300-
EAST-CENTRAL ILLINOIS

CITY           SKY/WX    TMP DP  RH WIND       PRES   REMARKS
CHAMPAIGN      SUNNY     39  10  30 CALM      30.28F
DANVILLE*      SUNNY     38  13  35 CALM      30.26F
RANTOUL*       SUNNY     39   7  26 CALM      30.29S
MATTOON        SUNNY     40  15  36 VRB3      30.28S
PARIS*         SUNNY     39  14  36 CALM      30.30S
$$

ILZ079-100>102-282300-
SOUTHWEST ILLINOIS

CITY           SKY/WX    TMP DP  RH WIND       PRES   REMARKS
ALTON          SUNNY     43  10  26 VRB9      30.28
BELLEVILLE     SUNNY     44  19  37 SE3       30.27S
CAHOKIA*       SUNNY     46  19  34 SE9       30.27S
SPARTA*        SUNNY     43  21  42 SE3       30.28S
$$

ILZ064>066-069>071-074>076-080>082-084>086-088>090-092>094-282300-
SOUTH-CENTRAL ILLINOIS

CITY           SKY/WX    TMP DP  RH WIND       PRES   REMARKS
CARBONDALE     SUNNY     44  16  32 E6        30.28S
CAIRO*         SUNNY     45  22  39 E6        30.28R
EFFINGHAM*     SUNNY     41  15  34 CALM      30.30F
MARION         SUNNY     45  14  29 N5        30.29S
MT. VERNON     SUNNY     45  18  33 E5        30.29S
CENTRALIA*     SUNNY     42  14  32 N3        30.28S
SALEM*         SUNNY     43  17  34 NE5       30.29S
METROPOLIS*    SUNNY     47  15  28 E3        30.26S
$$

ILZ067-068-072-073-078-083-087-091-282300-
SOUTHEAST ILLINOIS

CITY           SKY/WX    TMP DP  RH WIND       PRES   REMARKS
LAWRENCEVILLE  SUNNY     41  15  35 CALM      30.30F
FLORA*         SUNNY     41  19  41 NE5       30.30S
FAIRFIELD*     SUNNY     41  17  38 CALM      30.28F
HARRISBURG*    SUNNY     43  13  30 NE7       30.30S
ROBINSON*      SUNNY     40  15  35 CALM      30.31S
CARMI*         SUNNY     42  13  31 CALM      30.30S
$$

ABBREVIATIONS USED IN REMARKS
   TC - TEMPERATURE IN CELSIUS
  WCI - WIND CHILL INDEX
   HX - HEAT INDEX
  VSB - VISIBILITY
$$



USA.gov is the U.S. government's official web portal to all federal, state and local government web resources and services.